Location: Poprad
(49.0500°N, 20.3000°E)
Time: 19:41:46
(UTC+02:00)

RS-44 - Pass Details

Date: 26 April 2024
Orbit: 1174 x 1511 km, 82.5° (Epoch: 20 May)

Event Time Altitude Azimuth Distance (km) Brightness Sun altitude
Rises 21:55:51 0° 237° (WSW) 4,599 ? -17.8°
Reaches altitude 10° 21:59:35 10° 251° (WSW) 3,586 ? -18.2°
Maximum altitude 22:06:10 24° 301° (WNW) 2,603 ? -18.8°
Drops below altitude 10° 22:12:29 10° 352° (N) 3,418 ? -19.5°
Sets 22:15:59 0° 7° (N) 4,337 ? -19.8°
